| time (UTC) | temp F | wind direction | speed MPH | gust MPH | rain 1hr in | rain 24hr in | rain mn in | humidity % | barometer mb |
| 20260507120512 | 44 | 215 | 3.0 | 6.0 | 0.00 | 0.00 | 0.00 | 73 | 1012.4 |
| 20260507120010 | 43 | 220 | 4.0 | 5.0 | 0.00 | 0.00 | 0.00 | 73 | 1012.2 |
| 20260507115505 | 43 | 208 | 4.0 | 5.0 | 0.00 | 0.00 | 0.00 | 74 | 1012.3 |
| 20260507115001 | 42 | 216 | 4.0 | 6.0 | 0.00 | 0.00 | 0.00 | 74 | 1012.3 |
| 20260507114458 | 42 | 225 | 5.0 | 6.0 | 0.00 | 0.00 | 0.00 | 74 | 1012.3 |
| 20260507113955 | 42 | 224 | 3.0 | 5.0 | 0.00 | 0.00 | 0.00 | 73 | 1012.1 |
| 20260507113452 | 41 | 224 | 4.0 | 6.0 | 0.00 | 0.00 | 0.00 | 74 | 1012.3 |
| 20260507112949 | 41 | 218 | 3.0 | 5.0 | 0.00 | 0.00 | 0.00 | 73 | 1012.2 |
| 20260507112447 | 41 | 239 | 3.0 | 5.0 | 0.00 | 0.00 | 0.00 | 73 | 1012.3 |
| 20260507111943 | 41 | 219 | 4.0 | 6.0 | 0.00 | 0.00 | 0.00 | 73 | 1012.2 |
| 20260507111441 | 41 | 221 | 4.0 | 6.0 | 0.00 | 0.00 | 0.00 | 72 | 1012.1 |
| 20260507110937 | 41 | 209 | 4.0 | 5.0 | 0.00 | 0.00 | 0.00 | 72 | 1012.0 |
| 20260507110433 | 41 | 218 | 5.0 | 7.0 | 0.00 | 0.00 | 0.00 | 71 | 1012.1 |
| 20260507105930 | 41 | 222 | 4.0 | 7.0 | 0.00 | 0.00 | 0.00 | 71 | 1012.1 |
| 20260507105427 | 41 | 218 | 5.0 | 6.0 | 0.00 | 0.00 | 0.00 | 71 | 1012.1 |
| 20260507104923 | 41 | 218 | 3.0 | 6.0 | 0.00 | 0.00 | 0.00 | 70 | 1012.2 |
| 20260507104421 | 41 | 223 | 4.0 | 6.0 | 0.00 | 0.00 | 0.00 | 69 | 1012.1 |
| 20260507103916 | 41 | 217 | 4.0 | 6.0 | 0.00 | 0.00 | 0.00 | 69 | 1012.3 |
| 20260507103413 | 41 | 217 | 4.0 | 6.0 | 0.00 | 0.00 | 0.00 | 69 | 1012.3 |
| 20260507102909 | 41 | 209 | 4.0 | 6.0 | 0.00 | 0.00 | 0.00 | 69 | 1012.4 |
| 20260507102406 | 41 | 224 | 3.0 | 6.0 | 0.00 | 0.00 | 0.00 | 68 | 1012.6 |
| 20260507101902 | 41 | 218 | 4.0 | 6.0 | 0.00 | 0.00 | 0.00 | 68 | 1012.4 |
| 20260507101402 | 41 | 222 | 2.0 | 3.0 | 0.00 | 0.00 | 0.00 | 68 | 1012.5 |
| 20260507100859 | 41 | 206 | 2.0 | 2.0 | 0.00 | 0.00 | 0.00 | 68 | 1012.5 |
| 20260507100357 | 41 | 199 | 2.0 | 3.0 | 0.00 | 0.00 | 0.00 | 68 | 1012.7 |
| 20260507095855 | 42 | 192 | 1.0 | 5.0 | 0.00 | 0.00 | 0.00 | 67 | 1012.6 |
| 20260507095351 | 42 | 219 | 1.0 | 2.0 | 0.00 | 0.00 | 0.00 | 67 | 1012.9 |
| 20260507094849 | 42 | 213 | 1.0 | 2.0 | 0.00 | 0.00 | 0.00 | 66 | 1012.8 |
| 20260507094345 | 43 | 196 | 1.0 | 3.0 | 0.00 | 0.00 | 0.00 | 65 | 1012.8 |
| 20260507093842 | 43 | 221 | 1.0 | 2.0 | 0.00 | 0.00 | 0.00 | 65 | 1012.9 |
| 20260507093340 | 43 | 216 | 2.0 | 3.0 | 0.00 | 0.00 | 0.00 | 64 | 1012.9 |
| 20260507092839 | 43 | 227 | 2.0 | 2.0 | 0.00 | 0.00 | 0.00 | 64 | 1012.9 |
| 20260507092334 | 43 | 221 | 3.0 | 3.0 | 0.00 | 0.00 | 0.00 | 64 | 1012.9 |
| 20260507091831 | 43 | 220 | 2.0 | 6.0 | 0.00 | 0.00 | 0.00 | 64 | 1013.1 |
| 20260507091327 | 43 | 219 | 1.0 | 3.0 | 0.00 | 0.00 | 0.00 | 64 | 1013.0 |
| 20260507090823 | 43 | 214 | 3.0 | 5.0 | 0.00 | 0.00 | 0.00 | 64 | 1013.0 |
| 20260507090320 | 43 | 221 | 1.0 | 3.0 | 0.00 | 0.00 | 0.00 | 65 | 1013.3 |
| 20260507085817 | 43 | 186 | 3.0 | 5.0 | 0.00 | 0.00 | 0.00 | 65 | 1013.2 |
| 20260507085313 | 42 | 221 | 2.0 | 2.0 | 0.00 | 0.00 | 0.00 | 66 | 1013.4 |
| 20260507084811 | 42 | 220 | 3.0 | 5.0 | 0.00 | 0.00 | 0.00 | 66 | 1013.7 |
| 20260507084307 | 42 | 219 | 5.0 | 7.0 | 0.00 | 0.00 | 0.00 | 64 | 1013.3 |
| 20260507083805 | 42 | 220 | 3.0 | 3.0 | 0.00 | 0.00 | 0.00 | 66 | 1013.6 |
| 20260507083301 | 42 | 221 | 2.0 | 2.0 | 0.00 | 0.00 | 0.00 | 66 | 1013.6 |
| 20260507082757 | 42 | 216 | 5.0 | 6.0 | 0.00 | 0.00 | 0.00 | 65 | 1013.9 |
| 20260507082253 | 42 | 224 | 5.0 | 6.0 | 0.00 | 0.00 | 0.00 | 65 | 1013.7 |
| 20260507081750 | 42 | 217 | 4.0 | 6.0 | 0.00 | 0.00 | 0.00 | 65 | 1014.0 |
| 20260507081246 | 42 | 208 | 3.0 | 6.0 | 0.00 | 0.00 | 0.00 | 66 | 1014.0 |
| 20260507080743 | 42 | 216 | 3.0 | 3.0 | 0.00 | 0.00 | 0.00 | 66 | 1014.1 |
| 20260507080239 | 42 | 217 | 3.0 | 5.0 | 0.00 | 0.00 | 0.00 | 66 | 1013.9 |
| 20260507075734 | 42 | 215 | 3.0 | 6.0 | 0.00 | 0.00 | 0.00 | 65 | 1013.9 |
| 20260507075231 | 42 | 208 | 3.0 | 6.0 | 0.00 | 0.00 | 0.00 | 64 | 1014.0 |
| 20260507074727 | 42 | 212 | 3.0 | 3.0 | 0.00 | 0.00 | 0.00 | 65 | 1013.9 |
| 20260507074226 | 42 | 213 | 3.0 | 5.0 | 0.00 | 0.00 | 0.00 | 65 | 1014.2 |
| 20260507073722 | 42 | 214 | 3.0 | 5.0 | 0.00 | 0.00 | 0.00 | 64 | 1014.4 |
| 20260507073218 | 42 | 213 | 3.0 | 5.0 | 0.00 | 0.00 | 0.00 | 64 | 1014.3 |
| 20260507072717 | 42 | 209 | 3.0 | 3.0 | 0.00 | 0.00 | 0.00 | 66 | 1014.3 |
| 20260507072213 | 42 | 217 | 5.0 | 6.0 | 0.00 | 0.00 | 0.00 | 65 | 1014.3 |
| 20260507071711 | 41 | 219 | 5.0 | 7.0 | 0.00 | 0.00 | 0.00 | 65 | 1014.3 |
| 20260507071207 | 41 | 211 | 4.0 | 6.0 | 0.00 | 0.00 | 0.00 | 65 | 1014.6 |
| 20260507070704 | 41 | 216 | 4.0 | 6.0 | 0.00 | 0.00 | 0.00 | 65 | 1014.6 |
| 20260507070201 | 41 | 217 | 5.0 | 6.0 | 0.00 | 0.00 | 0.00 | 65 | 1014.6 |
| 20260507065657 | 41 | 221 | 4.0 | 6.0 | 0.00 | 0.00 | 0.00 | 65 | 1014.9 |
| 20260507065154 | 40 | 218 | 3.0 | 5.0 | 0.00 | 0.00 | 0.00 | 66 | 1014.8 |
| 20260507064652 | 40 | 218 | 4.0 | 5.0 | 0.00 | 0.00 | 0.00 | 67 | 1014.8 |
| 20260507064150 | 40 | 223 | 3.0 | 3.0 | 0.00 | 0.00 | 0.00 | 67 | 1014.9 |
| 20260507063648 | 40 | 220 | 4.0 | 6.0 | 0.00 | 0.00 | 0.00 | 66 | 1015.0 |
| 20260507063144 | 40 | 228 | 1.0 | 3.0 | 0.00 | 0.00 | 0.00 | 69 | 1014.9 |
| 20260507062641 | 40 | 224 | 3.0 | 3.0 | 0.00 | 0.00 | 0.00 | 68 | 1015.0 |
| 20260507062139 | 41 | 225 | 3.0 | 3.0 | 0.00 | 0.00 | 0.00 | 67 | 1015.1 |
| 20260507061637 | 41 | 225 | 3.0 | 5.0 | 0.00 | 0.00 | 0.00 | 66 | 1015.2 |
| 20260507061134 | 40 | 220 | 3.0 | 3.0 | 0.00 | 0.00 | 0.00 | 67 | 1015.2 |
| 20260507060632 | 41 | 221 | 3.0 | 5.0 | 0.00 | 0.00 | 0.00 | 67 | 1015.1 |
| 20260507060128 | 40 | 231 | 1.0 | 2.0 | 0.00 | 0.00 | 0.00 | 69 | 1015.3 |
| 20260507055624 | 40 | 231 | 2.0 | 2.0 | 0.00 | 0.00 | 0.00 | 69 | 1015.4 |
| 20260507055120 | 40 | 231 | 1.0 | 2.0 | 0.00 | 0.00 | 0.00 | 68 | 1015.3 |
| 20260507054616 | 41 | 232 | 2.0 | 3.0 | 0.00 | 0.00 | 0.00 | 67 | 1015.4 |
| 20260507054113 | 41 | 238 | 2.0 | 2.0 | 0.00 | 0.00 | 0.00 | 67 | 1015.3 |
| 20260507053611 | 41 | 239 | 1.0 | 1.0 | 0.00 | 0.00 | 0.00 | 67 | 1015.4 |
| 20260507053109 | 41 | 239 | 1.0 | 2.0 | 0.00 | 0.00 | 0.00 | 67 | 1015.4 |
| 20260507052607 | 41 | 238 | 1.0 | 2.0 | 0.00 | 0.00 | 0.00 | 66 | 1015.4 |
| 20260507052103 | 42 | 237 | 1.0 | 2.0 | 0.00 | 0.00 | 0.00 | 64 | 1015.4 |
| 20260507051601 | 42 | 244 | 2.0 | 2.0 | 0.00 | 0.00 | 0.00 | 62 | 1015.5 |
| 20260507051057 | 42 | 245 | 1.0 | 2.0 | 0.00 | 0.00 | 0.00 | 61 | 1015.4 |
| 20260507050554 | 42 | 245 | 1.0 | 1.0 | 0.00 | 0.00 | 0.00 | 61 | 1015.7 |
| 20260507050051 | 43 | 245 | 1.0 | 1.0 | 0.00 | 0.00 | 0.00 | 59 | 1015.6 |
| 20260507045548 | 43 | 245 | 1.0 | 1.0 | 0.00 | 0.00 | 0.00 | 59 | 1015.5 |
| 20260507045045 | 43 | 245 | 1.0 | 1.0 | 0.00 | 0.00 | 0.00 | 59 | 1015.6 |
| 20260507044541 | 44 | 245 | 1.0 | 1.0 | 0.00 | 0.00 | 0.00 | 58 | 1015.7 |
| 20260507044038 | 44 | 245 | 1.0 | 1.0 | 0.00 | 0.00 | 0.00 | 57 | 1015.8 |
| 20260507043534 | 44 | 245 | 1.0 | 1.0 | 0.00 | 0.00 | 0.00 | 57 | 1015.7 |
| 20260507043032 | 44 | 245 | 1.0 | 1.0 | 0.00 | 0.00 | 0.00 | 56 | 1015.7 |
| 20260507042527 | 44 | 245 | 1.0 | 1.0 | 0.00 | 0.00 | 0.00 | 56 | 1015.9 |
| 20260507042023 | 44 | 245 | 1.0 | 2.0 | 0.00 | 0.00 | 0.00 | 56 | 1015.9 |
| 20260507041520 | 44 | 245 | 1.0 | 1.0 | 0.00 | 0.00 | 0.00 | 56 | 1015.8 |
| 20260507041017 | 44 | 244 | 1.0 | 2.0 | 0.00 | 0.00 | 0.00 | 56 | 1015.9 |
| 20260507040513 | 45 | 244 | 1.0 | 2.0 | 0.00 | 0.00 | 0.00 | 54 | 1015.9 |
| 20260507040009 | 45 | 244 | 1.0 | 2.0 | 0.00 | 0.00 | 0.00 | 54 | 1015.9 |
| 20260507035506 | 45 | 245 | 1.0 | 1.0 | 0.00 | 0.00 | 0.00 | 53 | 1015.9 |
| 20260507035002 | 45 | 245 | 1.0 | 1.0 | 0.00 | 0.00 | 0.00 | 55 | 1015.9 |
| 20260507034459 | 44 | 245 | 1.0 | 1.0 | 0.00 | 0.00 | 0.00 | 54 | 1016.0 |
| 20260507033957 | 44 | 245 | 1.0 | 2.0 | 0.00 | 0.00 | 0.00 | 55 | 1016.0 |
| 20260507033455 | 44 | 245 | 1.0 | 1.0 | 0.00 | 0.00 | 0.00 | 55 | 1016.1 |
| 20260507032952 | 45 | 244 | 1.0 | 1.0 | 0.00 | 0.00 | 0.00 | 54 | 1016.1 |
| 20260507032449 | 46 | 244 | 1.0 | 1.0 | 0.00 | 0.00 | 0.00 | 52 | 1016.2 |
| 20260507031945 | 46 | 246 | 1.0 | 1.0 | 0.00 | 0.00 | 0.00 | 50 | 1016.0 |
| 20260507031441 | 46 | 246 | 0.0 | 1.0 | 0.00 | 0.00 | 0.00 | 50 | 1016.0 |
| 20260507030938 | 46 | 245 | 0.0 | 1.0 | 0.00 | 0.00 | 0.00 | 51 | 1015.9 |
| 20260507030435 | 46 | 245 | 0.0 | 1.0 | 0.00 | 0.00 | 0.00 | 51 | 1016.1 |
| 20260507025933 | 46 | 245 | 1.0 | 1.0 | 0.00 | 0.00 | 0.00 | 51 | 1016.0 |
| 20260507025430 | 46 | 244 | 0.0 | 1.0 | 0.00 | 0.00 | 0.00 | 51 | 1016.1 |
| 20260507024927 | 46 | 242 | 1.0 | 1.0 | 0.00 | 0.00 | 0.00 | 50 | 1016.1 |
| 20260507024424 | 47 | 240 | 1.0 | 2.0 | 0.00 | 0.00 | 0.00 | 49 | 1016.3 |
| 20260507023920 | 48 | 312 | 1.0 | 1.0 | 0.00 | 0.00 | 0.00 | 49 | 1016.0 |
| 20260507023417 | 49 | 312 | 0.0 | 0.0 | 0.00 | 0.00 | 0.00 | 51 | 1016.0 |
| 20260507022914 | 49 | 313 | 0.0 | 0.0 | 0.00 | 0.00 | 0.00 | 46 | 1016.0 |
| 20260507022411 | 49 | 313 | 0.0 | 0.0 | 0.00 | 0.00 | 0.00 | 43 | 1016.2 |
| 20260507021907 | 49 | 313 | 0.0 | 0.0 | 0.00 | 0.00 | 0.00 | 43 | 1015.8 |
| 20260507021408 | 49 | 313 | 0.0 | 0.0 | 0.00 | 0.00 | 0.00 | 43 | 1016.0 |
| 20260507020906 | 48 | 313 | 0.0 | 0.0 | 0.00 | 0.00 | 0.00 | 45 | 1015.9 |
| 20260507020402 | 48 | 313 | 0.0 | 0.0 | 0.00 | 0.00 | 0.00 | 43 | 1015.8 |
| 20260507015859 | 49 | 313 | 0.0 | 0.0 | 0.00 | 0.00 | 0.00 | 41 | 1015.8 |
| 20260507015357 | 49 | 313 | 0.0 | 0.0 | 0.00 | 0.00 | 0.00 | 42 | 1015.8 |
| 20260507014854 | 49 | 313 | 0.0 | 0.0 | 0.00 | 0.00 | 0.00 | 43 | 1015.7 |
| 20260507014350 | 49 | 313 | 0.0 | 0.0 | 0.00 | 0.00 | 0.00 | 45 | 1015.7 |
| 20260507013847 | 49 | 313 | 0.0 | 0.0 | 0.00 | 0.00 | 0.00 | 43 | 1015.8 |
| 20260507013344 | 50 | 313 | 0.0 | 0.0 | 0.00 | 0.00 | 0.00 | 42 | 1015.7 |
| 20260507012841 | 51 | 313 | 0.0 | 0.0 | 0.00 | 0.00 | 0.00 | 41 | 1015.9 |
| 20260507012337 | 51 | 313 | 0.0 | 2.0 | 0.00 | 0.00 | 0.00 | 40 | 1015.6 |
| 20260507011834 | 52 | 309 | 0.0 | 1.0 | 0.00 | 0.00 | 0.00 | 40 | 1015.6 |
| 20260507011331 | 53 | 310 | 0.0 | 0.0 | 0.00 | 0.00 | 0.00 | 40 | 1015.6 |
| 20260507010826 | 53 | 309 | 1.0 | 1.0 | 0.00 | 0.00 | 0.00 | 38 | 1015.6 |
| 20260507010322 | 54 | 313 | 0.0 | 1.0 | 0.00 | 0.00 | 0.00 | 38 | 1015.8 |
| 20260507005819 | 54 | 313 | 0.0 | 1.0 | 0.00 | 0.00 | 0.00 | 36 | 1015.8 |
| 20260507005315 | 54 | 329 | 1.0 | 2.0 | 0.00 | 0.00 | 0.00 | 37 | 1015.7 |
| 20260507004807 | 55 | 325 | 1.0 | 1.0 | 0.00 | 0.00 | 0.00 | 35 | 1015.6 |
| 20260507004304 | 55 | 320 | 0.0 | 1.0 | 0.00 | 0.00 | 0.00 | 35 | 1015.8 |
| 20260507003801 | 55 | 318 | 2.0 | 6.0 | 0.00 | 0.00 | 0.00 | 34 | 1015.8 |
| 20260507003255 | 55 | 324 | 2.0 | 6.0 | 0.00 | 0.00 | 0.00 | 34 | 1015.7 |
| 20260507002752 | 55 | 342 | 4.0 | 7.0 | 0.00 | 0.00 | 0.00 | 34 | 1015.7 |
| 20260507002248 | 56 | 354 | 7.0 | 9.0 | 0.00 | 0.00 | 0.00 | 34 | 1015.7 |
| 20260507001745 | 57 | 303 | 2.0 | 6.0 | 0.00 | 0.00 | 0.00 | 34 | 1015.9 |
| 20260507001243 | 57 | 300 | 2.0 | 8.0 | 0.00 | 0.00 | 0.00 | 32 | 1015.7 |
| 20260507000739 | 56 | 316 | 5.0 | 10.0 | 0.00 | 0.00 | 0.00 | 33 | 1015.9 |
| 20260507000235 | 56 | 313 | 4.0 | 10.0 | 0.00 | 0.00 | 0.00 | 34 | 1015.8 |
| 20260506235731 | 57 | 28 | 3.0 | 13.0 | 0.00 | 0.00 | 0.00 | 33 | 1015.9 |
| 20260506235227 | 57 | 341 | 7.0 | 7.0 | 0.00 | 0.00 | 0.00 | 32 | 1015.8 |
| 20260506234724 | 57 | 357 | 7.0 | 11.0 | 0.00 | 0.00 | 0.00 | 33 | 1015.9 |
| 20260506234221 | 57 | 344 | 2.0 | 6.0 | 0.00 | 0.00 | 0.00 | 33 | 1015.9 |
| 20260506233719 | 57 | 256 | 7.0 | 9.0 | 0.00 | 0.00 | 0.00 | 32 | 1015.9 |
| 20260506233215 | 57 | 335 | 7.0 | 15.0 | 0.00 | 0.00 | 0.00 | 33 | 1015.9 |
| 20260506232712 | 57 | 355 | 4.0 | 7.0 | 0.00 | 0.00 | 0.00 | 32 | 1016.1 |
| 20260506232206 | 57 | 295 | 6.0 | 13.0 | 0.00 | 0.00 | 0.00 | 32 | 1016.0 |
| 20260506231704 | 57 | 333 | 3.0 | 8.0 | 0.00 | 0.00 | 0.00 | 35 | 1016.0 |
| 20260506231203 | 57 | 320 | 4.0 | 6.0 | 0.00 | 0.00 | 0.00 | 32 | 1016.2 |
| 20260506230659 | 57 | 330 | 4.0 | 7.0 | 0.00 | 0.00 | 0.00 | 33 | 1016.1 |
| 20260506230156 | 57 | 314 | 6.0 | 15.0 | 0.00 | 0.00 | 0.00 | 32 | 1016.4 |
| 20260506225652 | 57 | 0 | 8.0 | 14.0 | 0.00 | 0.00 | 0.00 | 33 | 1016.3 |
| 20260506225149 | 57 | 299 | 7.0 | 10.0 | 0.00 | 0.00 | 0.00 | 32 | 1016.3 |
| 20260506224645 | 57 | 342 | 5.0 | 8.0 | 0.00 | 0.00 | 0.00 | 34 | 1016.2 |
| 20260506224142 | 57 | 339 | 5.0 | 10.0 | 0.00 | 0.00 | 0.00 | 32 | 1016.2 |
| 20260506223639 | 57 | 330 | 4.0 | 10.0 | 0.00 | 0.00 | 0.00 | 32 | 1016.4 |
| 20260506223135 | 57 | 355 | 10.0 | 14.0 | 0.00 | 0.00 | 0.00 | 33 | 1016.3 |
| 20260506222632 | 57 | 25 | 5.0 | 14.0 | 0.00 | 0.00 | 0.00 | 35 | 1016.1 |
| 20260506222128 | 57 | 343 | 4.0 | 10.0 | 0.00 | 0.00 | 0.00 | 35 | 1016.1 |
| 20260506221626 | 57 | 303 | 5.0 | 6.0 | 0.00 | 0.00 | 0.00 | 33 | 1016.2 |
| 20260506221123 | 57 | 342 | 8.0 | 11.0 | 0.00 | 0.00 | 0.00 | 33 | 1016.2 |
| 20260506220620 | 58 | 310 | 7.0 | 13.0 | 0.00 | 0.00 | 0.00 | 33 | 1016.4 |
| 20260506220115 | 57 | 286 | 5.0 | 7.0 | 0.00 | 0.00 | 0.00 | 36 | 1016.3 |
| 20260506215612 | 56 | 343 | 1.0 | 13.0 | 0.00 | 0.00 | 0.00 | 35 | 1016.5 |
| 20260506215108 | 57 | 17 | 9.0 | 14.0 | 0.00 | 0.00 | 0.00 | 33 | 1016.5 |
| 20260506214605 | 58 | 301 | 5.0 | 9.0 | 0.00 | 0.00 | 0.00 | 33 | 1016.6 |
| 20260506214102 | 58 | 326 | 3.0 | 17.0 | 0.00 | 0.00 | 0.00 | 32 | 1016.5 |
| 20260506213600 | 57 | 330 | 10.0 | 15.0 | 0.00 | 0.00 | 0.00 | 31 | 1016.4 |
| 20260506213057 | 57 | 224 | 3.0 | 8.0 | 0.00 | 0.00 | 0.00 | 35 | 1016.4 |
| 20260506212554 | 58 | 341 | 1.0 | 7.0 | 0.00 | 0.00 | 0.00 | 33 | 1016.5 |
| 20260506212048 | 56 | 18 | 6.0 | 13.0 | 0.00 | 0.00 | 0.00 | 34 | 1016.4 |
| 20260506211545 | 58 | 322 | 11.0 | 15.0 | 0.00 | 0.00 | 0.00 | 34 | 1016.7 |
| 20260506211042 | 57 | 328 | 3.0 | 10.0 | 0.00 | 0.00 | 0.00 | 36 | 1016.7 |
| 20260506210538 | 57 | 330 | 4.0 | 9.0 | 0.00 | 0.00 | 0.00 | 34 | 1016.7 |
| 20260506210035 | 57 | 250 | 8.0 | 11.0 | 0.00 | 0.00 | 0.00 | 33 | 1016.6 |
| 20260506205532 | 57 | 314 | 13.0 | 15.0 | 0.00 | 0.00 | 0.00 | 34 | 1016.6 |
| 20260506205027 | 56 | 319 | 1.0 | 7.0 | 0.00 | 0.00 | 0.00 | 35 | 1016.8 |
| 20260506204526 | 56 | 319 | 7.0 | 8.0 | 0.00 | 0.00 | 0.00 | 34 | 1016.8 |
| 20260506204022 | 56 | 283 | 2.0 | 11.0 | 0.00 | 0.00 | 0.00 | 37 | 1016.8 |
| 20260506203521 | 55 | 339 | 2.0 | 10.0 | 0.00 | 0.00 | 0.00 | 38 | 1016.8 |
| 20260506203017 | 54 | 249 | 3.0 | 6.0 | 0.00 | 0.00 | 0.00 | 36 | 1017.0 |
| 20260506202514 | 54 | 315 | 5.0 | 11.0 | 0.00 | 0.00 | 0.00 | 36 | 1017.2 |
| 20260506202010 | 54 | 7 | 7.0 | 11.0 | 0.00 | 0.00 | 0.00 | 37 | 1017.1 |
| 20260506201509 | 54 | 346 | 4.0 | 7.0 | 0.00 | 0.00 | 0.00 | 38 | 1017.2 |
| 20260506201004 | 55 | 346 | 7.0 | 13.0 | 0.00 | 0.00 | 0.00 | 37 | 1017.2 |
| 20260506200501 | 54 | 284 | 7.0 | 10.0 | 0.00 | 0.00 | 0.00 | 36 | 1017.1 |
| 20260506195957 | 53 | 316 | 7.0 | 11.0 | 0.00 | 0.00 | 0.00 | 37 | 1017.0 |
| 20260506195455 | 55 | 343 | 4.0 | 8.0 | 0.00 | 0.00 | 0.00 | 38 | 1017.3 |
| 20260506194950 | 58 | 321 | 5.0 | 7.0 | 0.00 | 0.00 | 0.00 | 34 | 1017.1 |
| 20260506194448 | 56 | 296 | 7.0 | 9.0 | 0.00 | 0.00 | 0.00 | 35 | 1017.0 |
| 20260506193944 | 55 | 298 | 2.0 | 8.0 | 0.00 | 0.00 | 0.00 | 36 | 1017.5 |
| 20260506193441 | 55 | 257 | 9.0 | 11.0 | 0.00 | 0.00 | 0.00 | 36 | 1017.3 |
| 20260506192933 | 55 | 297 | 3.0 | 13.0 | 0.00 | 0.00 | 0.00 | 36 | 1017.3 |
| 20260506192430 | 54 | 295 | 8.0 | 15.0 | 0.00 | 0.00 | 0.00 | 35 | 1017.6 |
| 20260506191926 | 53 | 350 | 2.0 | 6.0 | 0.00 | 0.00 | 0.00 | 39 | 1017.5 |
| 20260506191422 | 54 | 339 | 3.0 | 7.0 | 0.00 | 0.00 | 0.00 | 40 | 1017.5 |
| 20260506190914 | 54 | 267 | 3.0 | 14.0 | 0.00 | 0.00 | 0.00 | 39 | 1017.6 |
| 20260506190410 | 55 | 15 | 8.0 | 16.0 | 0.00 | 0.00 | 0.00 | 36 | 1017.5 |
| 20260506185907 | 53 | 10 | 8.0 | 10.0 | 0.00 | 0.00 | 0.00 | 38 | 1017.3 |
| 20260506185405 | 53 | 313 | 2.0 | 13.0 | 0.00 | 0.00 | 0.00 | 38 | 1017.5 |
| 20260506184902 | 54 | 299 | 10.0 | 14.0 | 0.00 | 0.00 | 0.00 | 38 | 1017.5 |
| 20260506184358 | 55 | 325 | 2.0 | 8.0 | 0.00 | 0.00 | 0.00 | 39 | 1017.6 |
| 20260506183855 | 54 | 330 | 3.0 | 9.0 | 0.00 | 0.00 | 0.00 | 41 | 1017.7 |
| 20260506183350 | 54 | 2 | 4.0 | 7.0 | 0.00 | 0.00 | 0.00 | 39 | 1017.6 |
| 20260506182848 | 53 | 323 | 6.0 | 9.0 | 0.00 | 0.00 | 0.00 | 40 | 1017.7 |
| 20260506182345 | 54 | 22 | 7.0 | 16.0 | 0.00 | 0.00 | 0.00 | 40 | 1017.6 |
| 20260506181843 | 53 | 296 | 5.0 | 7.0 | 0.00 | 0.00 | 0.00 | 39 | 1017.7 |
| 20260506181341 | 53 | 269 | 6.0 | 15.0 | 0.00 | 0.00 | 0.00 | 40 | 1017.7 |
| 20260506180837 | 53 | 316 | 10.0 | 14.0 | 0.00 | 0.00 | 0.00 | 39 | 1017.8 |
| 20260506180333 | 53 | 349 | 2.0 | 6.0 | 0.00 | 0.00 | 0.00 | 41 | 1017.9 |
| 20260506175824 | 53 | 306 | 7.0 | 13.0 | 0.00 | 0.00 | 0.00 | 39 | 1017.8 |
| 20260506175321 | 53 | 243 | 4.0 | 8.0 | 0.00 | 0.00 | 0.00 | 38 | 1017.9 |
| 20260506174818 | 52 | 310 | 6.0 | 10.0 | 0.00 | 0.00 | 0.00 | 41 | 1017.9 |
| 20260506174315 | 53 | 330 | 9.0 | 11.0 | 0.00 | 0.00 | 0.00 | 39 | 1018.0 |
| 20260506173813 | 52 | 333 | 8.0 | 10.0 | 0.00 | 0.00 | 0.00 | 41 | 1018.0 |
| 20260506173310 | 52 | 300 | 5.0 | 9.0 | 0.00 | 0.00 | 0.00 | 40 | 1018.1 |
| 20260506172807 | 53 | 292 | 2.0 | 6.0 | 0.00 | 0.00 | 0.00 | 40 | 1018.1 |
| 20260506172306 | 54 | 322 | 5.0 | 10.0 | 0.00 | 0.00 | 0.00 | 41 | 1018.0 |
| 20260506171801 | 51 | 18 | 3.0 | 9.0 | 0.00 | 0.00 | 0.00 | 40 | 1018.0 |
| 20260506171257 | 52 | 335 | 8.0 | 13.0 | 0.00 | 0.00 | 0.00 | 41 | 1018.2 |
| 20260506170755 | 51 | 324 | 7.0 | 10.0 | 0.00 | 0.00 | 0.00 | 41 | 1018.3 |
| 20260506170251 | 52 | 16 | 4.0 | 11.0 | 0.00 | 0.00 | 0.00 | 42 | 1018.1 |
| 20260506165750 | 52 | 277 | 7.0 | 9.0 | 0.00 | 0.00 | 0.00 | 39 | 1018.2 |
| 20260506165247 | 52 | 306 | 6.0 | 14.0 | 0.00 | 0.00 | 0.00 | 41 | 1018.2 |
| 20260506164744 | 52 | 299 | 2.0 | 17.0 | 0.00 | 0.00 | 0.00 | 41 | 1018.3 |
| 20260506164241 | 52 | 296 | 4.0 | 10.0 | 0.00 | 0.00 | 0.00 | 44 | 1018.1 |
| 20260506163738 | 53 | 310 | 9.0 | 14.0 | 0.00 | 0.00 | 0.00 | 41 | 1018.0 |
| 20260506163232 | 53 | 325 | 5.0 | 13.0 | 0.00 | 0.00 | 0.00 | 41 | 1018.2 |
| 20260506162728 | 51 | 32 | 5.0 | 13.0 | 0.00 | 0.00 | 0.00 | 42 | 1018.1 |
| 20260506162227 | 51 | 25 | 1.0 | 6.0 | 0.00 | 0.00 | 0.00 | 42 | 1018.2 |
| 20260506161724 | 53 | 350 | 7.0 | 11.0 | 0.00 | 0.00 | 0.00 | 42 | 1018.2 |
| 20260506161220 | 53 | 281 | 9.0 | 16.0 | 0.00 | 0.00 | 0.00 | 38 | 1018.1 |
| 20260506160718 | 50 | 23 | 4.0 | 8.0 | 0.00 | 0.00 | 0.00 | 43 | 1018.1 |
| 20260506160209 | 50 | 300 | 5.0 | 13.0 | 0.00 | 0.00 | 0.00 | 44 | 1018.1 |
| 20260506155707 | 51 | 290 | 5.0 | 7.0 | 0.00 | 0.00 | 0.00 | 45 | 1018.0 |
| 20260506155204 | 51 | 284 | 3.0 | 14.0 | 0.00 | 0.00 | 0.00 | 46 | 1018.2 |
| 20260506153306 | 51 | 312 | 2.0 | 6.0 | 0.00 | 0.00 | 0.00 | 48 | 1018.1 |
| 20260506152803 | 50 | 310 | 3.0 | 5.0 | 0.00 | 0.00 | 0.00 | 48 | 1018.0 |
| 20260506152300 | 50 | 318 | 4.0 | 8.0 | 0.00 | 0.00 | 0.00 | 49 | 1018.3 |
| 20260506151759 | 49 | 335 | 2.0 | 6.0 | 0.00 | 0.00 | 0.00 | 48 | 1018.2 |
| 20260506151255 | 48 | 347 | 3.0 | 8.0 | 0.00 | 0.00 | 0.00 | 49 | 1018.1 |
| 20260506150752 | 49 | 334 | 8.0 | 10.0 | 0.00 | 0.00 | 0.00 | 49 | 1018.2 |
| 20260506150249 | 49 | 359 | 5.0 | 8.0 | 0.00 | 0.00 | 0.00 | 51 | 1018.1 |
| 20260506145746 | 48 | 351 | 4.0 | 6.0 | 0.00 | 0.00 | 0.00 | 51 | 1018.1 |
| 20260506145242 | 48 | 301 | 3.0 | 5.0 | 0.00 | 0.00 | 0.00 | 54 | 1018.3 |
| 20260506144740 | 48 | 261 | 4.0 | 7.0 | 0.00 | 0.00 | 0.00 | 53 | 1018.0 |
| 20260506144237 | 48 | 316 | 2.0 | 3.0 | 0.00 | 0.00 | 0.00 | 55 | 1018.1 |
| 20260506143734 | 48 | 347 | 3.0 | 3.0 | 0.00 | 0.00 | 0.00 | 57 | 1018.1 |
| 20260506143231 | 46 | 334 | 0.0 | 2.0 | 0.00 | 0.00 | 0.00 | 57 | 1018.0 |
| 20260506142730 | 46 | 8 | 3.0 | 6.0 | 0.00 | 0.00 | 0.00 | 59 | 1018.1 |
| 20260506142227 | 47 | 325 | 2.0 | 7.0 | 0.00 | 0.00 | 0.00 | 58 | 1018.1 |
| 20260506141725 | 47 | 353 | 2.0 | 3.0 | 0.00 | 0.00 | 0.00 | 59 | 1017.9 |
| 20260506141224 | 46 | 338 | 4.0 | 6.0 | 0.00 | 0.00 | 0.00 | 57 | 1018.0 |
| 20260506140721 | 46 | 6 | 5.0 | 8.0 | 0.00 | 0.00 | 0.00 | 57 | 1017.8 |
| 20260506140217 | 46 | 349 | 3.0 | 5.0 | 0.00 | 0.00 | 0.00 | 58 | 1017.8 |
| 20260506135714 | 46 | 332 | 1.0 | 5.0 | 0.00 | 0.00 | 0.00 | 62 | 1017.8 |
| 20260506135211 | 45 | 347 | 2.0 | 3.0 | 0.00 | 0.00 | 0.00 | 61 | 1017.5 |
| 20260506134708 | 45 | 335 | 3.0 | 3.0 | 0.00 | 0.00 | 0.00 | 64 | 1017.6 |
| 20260506134203 | 44 | 327 | 2.0 | 2.0 | 0.00 | 0.00 | 0.00 | 65 | 1017.3 |
| 20260506133701 | 44 | 348 | 2.0 | 6.0 | 0.00 | 0.00 | 0.00 | 65 | 1017.3 |
| 20260506133157 | 44 | 313 | 2.0 | 5.0 | 0.00 | 0.00 | 0.00 | 64 | 1017.5 |
| 20260506132655 | 43 | 332 | 1.0 | 2.0 | 0.00 | 0.00 | 0.00 | 67 | 1017.2 |
| 20260506132151 | 44 | 316 | 2.0 | 2.0 | 0.00 | 0.00 | 0.00 | 68 | 1017.1 |
| 20260506131649 | 43 | 317 | 0.0 | 1.0 | 0.00 | 0.00 | 0.00 | 66 | 1017.2 |
| 20260506131145 | 43 | 346 | 3.0 | 3.0 | 0.00 | 0.00 | 0.00 | 68 | 1017.3 |
| 20260506130642 | 43 | 343 | 2.0 | 3.0 | 0.00 | 0.00 | 0.00 | 68 | 1017.1 |
| 20260506130140 | 42 | 331 | 0.0 | 1.0 | 0.00 | 0.00 | 0.00 | 70 | 1017.0 |
| 20260506125638 | 42 | 327 | 2.0 | 2.0 | 0.00 | 0.00 | 0.00 | 69 | 1017.1 |
| 20260506125135 | 42 | 317 | 3.0 | 3.0 | 0.00 | 0.00 | 0.00 | 68 | 1017.0 |
| 20260506124633 | 42 | 336 | 2.0 | 3.0 | 0.00 | 0.00 | 0.00 | 71 | 1017.0 |
| 20260506124131 | 42 | 304 | 1.0 | 2.0 | 0.00 | 0.00 | 0.00 | 71 | 1017.0 |
| 20260506123628 | 41 | 301 | 0.0 | 1.0 | 0.00 | 0.00 | 0.00 | 72 | 1016.9 |
| 20260506123127 | 41 | 300 | 1.0 | 2.0 | 0.00 | 0.00 | 0.00 | 73 | 1016.9 |
| 20260506122623 | 41 | 299 | 0.0 | 1.0 | 0.00 | 0.00 | 0.00 | 75 | 1016.8 |
| 20260506122121 | 40 | 300 | 0.0 | 0.0 | 0.00 | 0.00 | 0.00 | 76 | 1016.5 |
| 20260506121618 | 40 | 300 | 1.0 | 1.0 | 0.00 | 0.00 | 0.00 | 76 | 1016.4 |
| 20260506121114 | 39 | 300 | 0.0 | 1.0 | 0.00 | 0.00 | 0.00 | 77 | 1016.5 |